�������l�o���
Date,Time,MP-1(��Sv/h),MP-2(��Sv/h),MP-3(��Sv/h),MP-4(��Sv/h),MP-5(��Sv/h),MP-6(��Sv/h),MP-7(��Sv/h),MP-8(��Sv/h),����,����(m/s),���J
2021/09/27,00:00,0.586,0.873,0.558,1.067,0.761,0.359,0.623,0.584,�k��,2.9,��
2021/09/27,00:10,0.589,0.873,0.560,1.069,0.760,0.360,0.623,0.582,�k�k��,2.3,��
2021/09/27,00:20,0.587,0.871,0.559,1.069,0.760,0.359,0.625,0.585,�k�k��,3.3,��
2021/09/27,00:30,0.588,0.872,0.558,1.070,0.761,0.360,0.622,0.583,�k�k��,3.4,��
2021/09/27,00:40,0.587,0.871,0.561,1.069,0.762,0.359,0.624,0.584,�k�k��,4.0,��
2021/09/27,00:50,0.588,0.871,0.559,1.068,0.762,0.359,0.622,0.584,�k��,4.5,��
2021/09/27,01:00,0.587,0.874,0.559,1.069,0.763,0.359,0.623,0.585,�k�k��,4.9,��
2021/09/27,01:10,0.588,0.876,0.559,1.070,0.763,0.360,0.621,0.584,�k�k��,4.9,��
2021/09/27,01:20,0.588,0.873,0.559,1.068,0.762,0.359,0.623,0.584,�k�k��,4.7,��
2021/09/27,01:30,0.588,0.872,0.558,1.071,0.763,0.358,0.623,0.584,�k�k��,5.3,��
2021/09/27,01:40,0.587,0.875,0.558,1.068,0.762,0.359,0.624,0.583,�k�k��,5.2,��
2021/09/27,01:50,0.588,0.871,0.560,1.072,0.761,0.359,0.624,0.584,�k�k��,4.9,��
2021/09/27,02:00,0.587,0.871,0.558,1.068,0.764,0.358,0.622,0.584,�k�k��,5.1,��
2021/09/27,02:10,0.586,0.872,0.560,1.069,0.762,0.358,0.623,0.585,�k�k��,4.8,��
2021/09/27,02:20,0.586,0.871,0.558,1.069,0.761,0.359,0.623,0.584,�k�k��,4.9,��
2021/09/27,02:30,0.588,0.873,0.559,1.068,0.762,0.358,0.624,0.584,�k�k��,5.5,��
2021/09/27,02:40,0.585,0.873,0.559,1.069,0.764,0.359,0.622,0.584,�k�k��,4.9,��
2021/09/27,02:50,0.587,0.871,0.557,1.072,0.763,0.357,0.622,0.583,�k�k��,4.8,��
2021/09/27,03:00,0.587,0.873,0.558,1.070,0.761,0.358,0.623,0.585,�k�k��,4.7,��
2021/09/27,03:10,0.584,0.872,0.559,1.069,0.762,0.359,0.623,0.584,�k�k��,4.5,��
2021/09/27,03:20,0.587,0.873,0.559,1.070,0.761,0.359,0.624,0.584,�k�k��,4.3,��
2021/09/27,03:30,0.587,0.871,0.559,1.069,0.762,0.358,0.621,0.584,�k��,4.0,��
2021/09/27,03:40,0.585,0.874,0.559,1.070,0.762,0.358,0.622,0.584,�k��,4.0,��
2021/09/27,03:50,0.586,0.874,0.558,1.069,0.762,0.357,0.623,0.584,�k��,4.0,��
2021/09/27,04:00,0.587,0.873,0.560,1.070,0.762,0.359,0.624,0.583,�k�k��,4.0,��
2021/09/27,04:10,0.586,0.873,0.559,1.069,0.764,0.360,0.623,0.584,�k�k��,4.8,��
2021/09/27,04:20,0.586,0.873,0.558,1.069,0.762,0.360,0.624,0.584,�k�k��,4.9,��
2021/09/27,04:30,0.588,0.873,0.560,1.070,0.761,0.358,0.623,0.585,�k�k��,5.1,��
2021/09/27,04:40,0.586,0.872,0.559,1.069,0.764,0.359,0.623,0.585,�k�k��,5.5,��
2021/09/27,04:50,0.588,0.871,0.559,1.070,0.760,0.358,0.623,0.584,�k�k��,5.7,��
2021/09/27,05:00,0.585,0.873,0.558,1.069,0.760,0.359,0.623,0.584,�k�k��,5.9,��
2021/09/27,05:10,0.586,0.870,0.559,1.070,0.762,0.357,0.623,0.584,�k�k��,5.4,��
2021/09/27,05:20,0.587,0.873,0.559,1.070,0.761,0.358,0.624,0.582,�k�k��,5.0,��
2021/09/27,05:30,0.586,0.875,0.559,1.070,0.761,0.359,0.622,0.585,�k,4.9,��
2021/09/27,05:40,0.586,0.871,0.559,1.069,0.762,0.358,0.625,0.584,�k�k��,5.2,��
2021/09/27,05:50,0.586,0.873,0.557,1.069,0.762,0.358,0.622,0.584,�k�k��,4.2,��
2021/09/27,06:00,0.586,0.873,0.559,1.070,0.763,0.359,0.623,0.585,�k�k��,4.1,��
2021/09/27,06:10,0.589,0.873,0.559,1.068,0.763,0.359,0.623,0.584,�k�k��,4.4,��
2021/09/27,06:20,0.587,0.872,0.560,1.070,0.763,0.359,0.624,0.586,�k�k��,4.5,��
2021/09/27,06:30,0.586,0.871,0.560,1.068,0.762,0.358,0.624,0.584,�k�k��,4.4,��
2021/09/27,06:40,0.586,0.875,0.559,1.070,0.761,0.359,0.623,0.586,�k�k��,3.8,��
2021/09/27,06:50,0.587,0.874,0.559,1.069,0.762,0.359,0.625,0.585,�k�k��,4.7,��
2021/09/27,07:00,0.586,0.873,0.558,1.072,0.763,0.358,0.623,0.585,�k�k��,5.4,��
2021/09/27,07:10,0.586,0.874,0.560,1.068,0.763,0.359,0.623,0.585,�k�k��,5.8,��
2021/09/27,07:20,0.589,0.873,0.561,1.070,0.763,0.359,0.623,0.585,�k�k��,5.9,��
2021/09/27,07:30,0.589,0.873,0.559,1.070,0.763,0.359,0.623,0.585,�k�k��,6.4,��
2021/09/27,07:40,0.588,0.873,0.560,1.070,0.762,0.358,0.621,0.584,�k�k��,6.1,��
2021/09/27,07:50,0.588,0.874,0.557,1.069,0.763,0.359,0.621,0.585,�k�k��,5.8,��
2021/09/27,08:00,0.587,0.877,0.560,1.069,0.761,0.357,0.623,0.585,�k�k��,4.9,��
2021/09/27,08:10,0.586,0.876,0.560,1.070,0.763,0.358,0.620,0.585,�k�k��,4.2,��
2021/09/27,08:20,0.588,0.874,0.560,1.072,0.763,0.358,0.622,0.583,�k�k��,3.2,��
2021/09/27,08:30,0.588,0.874,0.561,1.070,0.760,0.356,0.622,0.583,�k�k��,3.5,��
2021/09/27,08:40,0.588,0.871,0.561,1.071,0.762,0.356,0.623,0.584,�k�k��,3.2,��
2021/09/27,08:50,0.585,0.871,0.561,1.072,0.762,0.356,0.622,0.584,�k�k��,2.6,��
2021/09/27,09:00,0.587,0.870,0.559,1.072,0.761,0.356,0.622,0.585,�k��,2.6,��
2021/09/27,09:10,0.587,0.870,0.559,1.071,0.762,0.356,0.623,0.584,�k�k��,3.3,��
2021/09/27,09:20,0.585,0.869,0.559,1.072,0.761,0.357,0.623,0.584,�k�k��,2.8,��
2021/09/27,09:30,0.585,0.868,0.560,1.071,0.759,0.356,0.623,0.583,�k�k��,2.0,��
2021/09/27,09:40,0.585,0.870,0.559,1.070,0.758,0.357,0.623,0.584,�k�k��,2.3,��
2021/09/27,09:50,0.586,0.870,0.559,1.068,0.759,0.356,0.623,0.584,�k,2.6,��
2021/09/27,10:00,0.586,0.872,0.559,1.070,0.762,0.355,0.624,0.583,�k�k��,2.9,��
2021/09/27,10:10,0.585,0.870,0.558,1.071,0.760,0.357,0.623,0.584,�k,2.5,��
2021/09/27,10:20,0.585,0.868,0.557,1.069,0.761,0.358,0.624,0.583,�k�k��,2.5,��
2021/09/27,10:30,0.586,0.869,0.558,1.071,0.760,0.357,0.624,0.583,�k�k��,2.9,��
2021/09/27,10:40,0.585,0.871,0.557,1.072,0.758,0.357,0.623,0.584,�k�k��,2.9,��
2021/09/27,10:50,0.586,0.869,0.557,1.070,0.762,0.357,0.623,0.583,�k�k��,3.0,��
2021/09/27,11:00,0.586,0.868,0.559,1.071,0.762,0.357,0.624,0.583,�k�k��,2.5,��
2021/09/27,11:10,0.586,0.869,0.558,1.072,0.761,0.358,0.624,0.581,�k��,2.6,��
2021/09/27,11:20,0.587,0.872,0.559,1.073,0.763,0.357,0.623,0.582,���k��,2.6,��
2021/09/27,11:30,0.589,0.871,0.559,1.070,0.763,0.358,0.623,0.582,���k��,3.4,��
2021/09/27,11:40,0.587,0.874,0.558,1.071,0.763,0.357,0.622,0.583,�k��,3.1,��
2021/09/27,11:50,0.587,0.873,0.560,1.073,0.762,0.359,0.624,0.583,���k��,3.3,��
2021/09/27,12:00,0.589,0.875,0.557,1.071,0.764,0.358,0.624,0.584,�k��,3.3,��
2021/09/27,12:10,0.588,0.877,0.562,1.071,0.764,0.359,0.624,0.583,�k��,3.2,��
2021/09/27,12:20,0.588,0.877,0.560,1.070,0.764,0.358,0.624,0.583,���k��,3.1,��
2021/09/27,12:30,0.588,0.875,0.561,1.073,0.765,0.357,0.622,0.583,�k�k��,4.0,��
2021/09/27,12:40,0.591,0.873,0.561,1.073,0.765,0.358,0.624,0.583,�k�k��,4.3,��
2021/09/27,12:50,0.589,0.875,0.561,1.073,0.765,0.358,0.625,0.584,�k�k��,4.0,��
2021/09/27,13:00,0.591,0.875,0.561,1.073,0.765,0.358,0.626,0.584,�k��,4.4,��
2021/09/27,13:10,0.589,0.875,0.561,1.072,0.765,0.359,0.626,0.583,�k�k��,3.8,��
2021/09/27,13:20,0.589,0.875,0.560,1.074,0.764,0.357,0.625,0.585,�k�k��,4.3,��
2021/09/27,13:30,0.588,0.877,0.562,1.074,0.767,0.357,0.626,0.584,�k�k��,3.8,��
2021/09/27,13:40,0.589,0.874,0.559,1.075,0.766,0.359,0.626,0.584,�k�k��,4.3,��
2021/09/27,13:50,0.586,0.876,0.561,1.074,0.767,0.358,0.628,0.583,�k�k��,4.0,��
2021/09/27,14:00,0.590,0.875,0.562,1.075,0.765,0.358,0.627,0.583,�k�k��,4.4,��
2021/09/27,14:10,0.588,0.875,0.561,1.075,0.765,0.357,0.626,0.585,�k��,3.4,��
2021/09/27,14:20,0.591,0.878,0.562,1.075,0.767,0.359,0.626,0.584,���k��,3.9,��
2021/09/27,14:30,0.590,0.879,0.561,1.076,0.766,0.358,0.626,0.584,�k��,3.0,��
2021/09/27,14:40,0.588,0.875,0.561,1.076,0.765,0.358,0.627,0.585,�k��,3.4,��
2021/09/27,14:50,0.589,0.880,0.561,1.074,0.766,0.359,0.628,0.582,�k��,4.0,��
2021/09/27,15:00,0.588,0.877,0.561,1.075,0.766,0.359,0.626,0.584,�k��,4.0,��
2021/09/27,15:10,0.590,0.879,0.561,1.074,0.768,0.360,0.626,0.583,�k��,3.5,��
2021/09/27,15:20,0.587,0.877,0.561,1.074,0.766,0.357,0.627,0.582,�k�k��,4.2,��
2021/09/27,15:30,0.589,0.881,0.562,1.076,0.766,0.358,0.625,0.583,�k��,4.2,��
2021/09/27,15:40,0.589,0.880,0.561,1.075,0.767,0.358,0.627,0.585,�k��,6.7,��
2021/09/27,15:50,0.587,0.880,0.560,1.075,0.767,0.358,0.626,0.583,�k��,6.1,�L
2021/09/27,16:00,0.589,0.879,0.561,1.076,0.768,0.360,0.625,0.583,�k��,5.3,�L
2021/09/27,16:10,0.590,0.878,0.561,1.076,0.767,0.359,0.625,0.584,�k��,5.3,�L
2021/09/27,16:20,0.588,0.879,0.561,1.073,0.765,0.359,0.627,0.583,�k��,4.5,��
2021/09/27,16:30,0.589,0.879,0.562,1.077,0.765,0.362,0.626,0.583,�k��,4.2,��
2021/09/27,16:40,0.588,0.879,0.560,1.074,0.767,0.360,0.627,0.582,�k��,4.8,��
2021/09/27,16:50,0.588,0.880,0.562,1.076,0.768,0.362,0.626,0.584,���k��,5.4,��
2021/09/27,17:00,0.590,0.879,0.561,1.076,0.767,0.360,0.625,0.583,�k��,4.7,��
2021/09/27,17:10,0.587,0.880,0.561,1.077,0.765,0.361,0.627,0.584,�k��,5.4,��
2021/09/27,17:20,0.589,0.881,0.562,1.075,0.768,0.361,0.626,0.583,�k��,4.0,��
2021/09/27,17:30,0.589,0.880,0.563,1.076,0.768,0.361,0.628,0.583,�k��,2.8,��
2021/09/27,17:40,0.589,0.880,0.563,1.076,0.766,0.360,0.627,0.584,�k��,3.2,��
2021/09/27,17:50,0.588,0.883,0.562,1.075,0.767,0.360,0.627,0.583,�k�k��,4.0,��
2021/09/27,18:00,0.589,0.880,0.564,1.076,0.767,0.361,0.628,0.586,�k�k��,3.8,��
2021/09/27,18:10,0.590,0.883,0.562,1.077,0.769,0.361,0.626,0.585,�k�k��,3.0,��
2021/09/27,18:20,0.591,0.883,0.562,1.077,0.767,0.360,0.626,0.586,�k��,3.9,��
2021/09/27,18:30,0.590,0.882,0.565,1.076,0.768,0.361,0.626,0.585,�k��,4.3,��
2021/09/27,18:40,0.590,0.881,0.564,1.075,0.768,0.360,0.627,0.585,�k��,4.1,��
2021/09/27,18:50,0.591,0.883,0.563,1.078,0.770,0.360,0.628,0.586,�k��,2.8,��
2021/09/27,19:00,0.591,0.880,0.565,1.077,0.770,0.359,0.626,0.586,�k��,2.9,��
2021/09/27,19:10,0.590,0.883,0.563,1.077,0.770,0.360,0.627,0.587,�k��,2.9,��
2021/09/27,19:20,0.591,0.884,0.563,1.077,0.770,0.359,0.627,0.585,�k��,2.9,��
2021/09/27,19:30,0.590,0.883,0.563,1.077,0.770,0.360,0.628,0.588,�k��,2.9,��
2021/09/27,19:40,0.592,0.881,0.563,1.075,0.769,0.359,0.627,0.588,�k��,2.9,��
2021/09/27,19:50,0.592,0.880,0.563,1.077,0.769,0.361,0.626,0.587,�k��,2.9,��
2021/09/27,20:00,0.592,0.883,0.563,1.078,0.768,0.359,0.626,0.585,�k��,2.9,��
2021/09/27,20:10,0.592,0.883,0.563,1.077,0.770,0.359,0.626,0.586,�k��,2.9,��
2021/09/27,20:20,0.591,0.884,0.563,1.078,0.769,0.361,0.627,0.584,�k��,2.9,��
2021/09/27,20:30,0.592,0.882,0.563,1.079,0.769,0.359,0.625,0.587,�k��,2.9,��
2021/09/27,20:40,0.590,0.881,0.564,1.077,0.770,0.360,0.627,0.587,�k��,2.9,��
2021/09/27,20:50,0.593,0.884,0.565,1.079,0.769,0.360,0.626,0.586,�k��,2.9,��
2021/09/27,21:00,0.590,0.882,0.563,1.077,0.769,0.361,0.626,0.587,�k��,2.9,��
2021/09/27,21:10,0.592,0.882,0.563,1.077,0.770,0.361,0.627,0.585,�k��,2.9,��
2021/09/27,21:20,0.591,0.881,0.565,1.076,0.770,0.360,0.628,0.586,�k��,2.9,��
2021/09/27,21:30,0.593,0.881,0.563,1.078,0.770,0.361,0.627,0.588,�k��,2.9,��
2021/09/27,21:40,0.593,0.882,0.560,1.078,0.768,0.360,0.627,0.588,�k��,2.9,��
2021/09/27,21:50,0.591,0.884,0.559,1.078,0.770,0.361,0.627,0.587,�k��,2.9,��
2021/09/27,22:00,0.592,0.885,0.558,1.079,0.768,0.359,0.627,0.587,�k��,2.9,��
2021/09/27,22:10,0.591,0.881,0.561,1.080,0.769,0.361,0.628,0.587,�k��,2.9,��
2021/09/27,22:20,0.592,0.885,0.559,1.079,0.769,0.359,0.627,0.586,�k��,2.9,��
2021/09/27,22:30,0.592,0.881,0.562,1.077,0.769,0.360,0.627,0.586,�k��,2.9,��
2021/09/27,22:40,0.591,0.883,0.562,1.077,0.768,0.360,0.626,0.587,�k��,2.9,��
2021/09/27,22:50,0.593,0.883,0.564,1.077,0.770,0.359,0.625,0.587,�k��,2.9,��
2021/09/27,23:00,0.592,0.883,0.561,1.079,0.770,0.359,0.625,0.587,�k��,2.9,��
2021/09/27,23:10,0.590,0.883,0.563,1.079,0.769,0.361,0.625,0.586,�k��,2.9,��
2021/09/27,23:20,0.592,0.885,0.564,1.077,0.769,0.360,0.626,0.586,�k��,2.9,��
2021/09/27,23:30,0.590,0.883,0.560,1.078,0.770,0.358,0.627,0.588,�k��,2.9,��
2021/09/27,23:40,0.592,0.882,0.561,1.078,0.770,0.361,0.627,0.587,�k��,2.9,��
2021/09/27,23:50,0.591,0.883,0.562,1.079,0.771,0.359,0.630,0.588,�k��,2.9,��
